Lake Wylie Weather Center

Moon Phase Calendar



Lake Wylie Water Level
Online Cameras

 


      

Current Conditions in Lake Wylie
5/25/2024 10:08:12 AM

76°F
Feels Like 77
Clear
Humidity
72%
Pressure
29.91"
Wind
3.4 mph (N)
Dew Point
66°F
UV Index
2/10 (Low)
Visibility
6 mi

Hourly Forecast

Date & Time Sat, May 25
10:00 AM
Sat, May 25
11:00 AM
Sat, May 25
12:00 PM
Sat, May 25
1:00 PM
Sat, May 25
2:00 PM
Sat, May 25
3:00 PM
Sat, May 25
4:00 PM
Sat, May 25
5:00 PM
Sat, May 25
6:00 PM
Sat, May 25
7:00 PM
Sat, May 25
8:00 PM
Sat, May 25
9:00 PM
Sat, May 25
10:00 PM
Sat, May 25
11:00 PM
Sun, May 26
12:00 AM
Sun, May 26
1:00 AM
Sun, May 26
2:00 AM
Sun, May 26
3:00 AM
Sun, May 26
4:00 AM
Sun, May 26
5:00 AM
Sun, May 26
6:00 AM
Sun, May 26
7:00 AM
Sun, May 26
8:00 AM
Sun, May 26
9:00 AM
Sun, May 26
10:00 AM
Sun, May 26
11:00 AM
Sun, May 26
12:00 PM
Sun, May 26
1:00 PM
Sun, May 26
2:00 PM
Sun, May 26
3:00 PM
Sun, May 26
4:00 PM
Sun, May 26
5:00 PM
Sun, May 26
6:00 PM
Sun, May 26
7:00 PM
Sun, May 26
8:00 PM
Sun, May 26
9:00 PM
Sun, May 26
10:00 PM
Sun, May 26
11:00 PM
Mon, May 27
12:00 AM
Mon, May 27
1:00 AM
Mon, May 27
2:00 AM
Mon, May 27
3:00 AM
Mon, May 27
4:00 AM
Mon, May 27
5:00 AM
Mon, May 27
6:00 AM
Mon, May 27
7:00 AM
Mon, May 27
8:00 AM
Mon, May 27
9:00 AM
Condition
Clear

Clouds

Clouds

Clouds

Clouds

Clouds

Clouds

Clouds

Clouds

Clouds

Rain

Rain

Rain

Clouds

Clouds

Clouds

Clouds

Clear

Clear

Clear

Clouds

Clouds

Clouds

Clouds

Clouds

Clouds

Clouds

Clouds

Clouds

Clouds

Clouds

Clouds

Clouds

Clouds

Clouds

Clouds

Clouds

Rain

Clouds

Rain

Rain

Rain

Clear

Clear

Clear

Clear

Clouds

Clouds
Temperature 76°F77°F79°F82°F85°F89°F86°F85°F87°F82°F77°F71°F71°F70°F70°F69°F68°F67°F67°F67°F66°F68°F71°F75°F79°F83°F85°F87°F88°F89°F90°F89°F88°F85°F80°F79°F77°F74°F75°F72°F69°F69°F69°F69°F68°F69°F71°F73°F
Feels Like 77°F78°F79°F84°F87°F89°F88°F87°F89°F85°F77°F72°F72°F71°F70°F69°F69°F68°F68°F67°F67°F68°F72°F76°F79°F86°F88°F89°F90°F91°F92°F91°F91°F89°F80°F79°F78°F75°F76°F73°F70°F70°F70°F70°F69°F70°F72°F74°F
Cloudiness 0%14%32%46%66%50%75%83%88%90%92%100%97%68%51%41%34%0%0%0%20%32%43%100%92%91%86%89%92%100%54%73%82%85%87%100%100%100%100%100%90%2%0%1%2%6%19%100%
Visibility 6 mi6 mi6 mi6 mi6 mi6 mi6 mi6 mi6 mi6 mi6 mi6 mi6 mi6 mi6 mi6 mi6 mi6 mi6 mi6 mi6 mi6 mi6 mi6 mi6 mi6 mi6 mi6 mi6 mi6 mi6 mi6 mi6 mi6 mi6 mi6 mi6 mi6 mi6 mi6 mi6 mi6 mi6 mi6 mi6 mi6 mi6 mi6 mi
Precipitation 0%0%0%0%0%0%0%0%0%0%42%100%100%80%80%80%80%0%0%0%0%0%0%0%0%0%0%0%0%0%0%0%0%0%0%0%0%24%21%81%100%75%33%0%0%0%0%0%
Humidity 72%69%64%57%49%41%51%52%49%62%73%90%88%85%86%87%88%91%93%94%94%93%87%79%70%62%55%50%46%43%42%45%51%60%67%68%70%79%78%86%96%97%96%97%97%96%93%89%
Dew Point 66°F66°F66°F65°F64°F62°F65°F65°F66°F67°F67°F68°F67°F65°F65°F65°F64°F64°F65°F65°F64°F65°F67°F68°F68°F68°F67°F66°F65°F64°F64°F65°F67°F70°F68°F67°F66°F67°F68°F68°F68°F68°F68°F68°F67°F67°F68°F69°F
Pressure 29.91"29.91"29.91"29.88"29.85"29.83"29.83"29.8"29.8"29.8"29.83"29.85"29.85"29.85"29.88"29.85"29.85"29.88"29.85"29.85"29.88"29.88"29.91"29.91"29.91"29.88"29.88"29.88"29.85"29.83"29.83"29.83"29.8"29.8"29.83"29.83"29.83"29.83"29.83"29.83"29.85"29.83"29.8"29.8"29.83"29.85"29.85"29.85"
Wind Speed 1.3 mph2.3 mph2.8 mph4 mph4.7 mph5.9 mph4.5 mph3 mph2.5 mph4.3 mph4.2 mph4.4 mph2.5 mph1.5 mph2.4 mph2.5 mph2.6 mph3 mph1.9 mph1.4 mph2.3 mph2.2 mph1.2 mph0.6 mph2.7 mph3.5 mph5.5 mph7.8 mph7.7 mph7.9 mph8.6 mph9.3 mph6.6 mph5.5 mph5.2 mph7.1 mph9.4 mph6.6 mph7.8 mph4.6 mph3.4 mph4.6 mph4.8 mph5.3 mph5.1 mph6.2 mph7.4 mph8.2 mph
Wind
Direction
136°
SE
214°
SW
238°
WSW
243°
WSW
253°
WSW
274°
W
289°
WNW
252°
WSW
323°
NW
67°
ENE
285°
WNW
320°
NW
23°
NNE
322°
NW
147°
SSE
158°
SSE
174°
S
223°
SW
248°
WSW
309°
NW
10°
N
35°
NE
290°
WNW
84°
E
209°
SSW
186°
S
191°
S
212°
SSW
210°
SSW
214°
SW
209°
SSW
214°
SW
206°
SSW
212°
SSW
197°
SSW
211°
SSW
209°
SSW
208°
SSW
213°
SSW
222°
SW
220°
SW
199°
SSW
207°
SSW
192°
SSW
193°
SSW
198°
SSW
207°
SSW
209°
SSW

Daily Forecast

Date High Low Precip. Humidity
Today
May 25

Rain
89 °F
66 °F
100%
57%
Sunday
May 26

Rain
90 °F
66 °F
80%
50%
Monday
May 27

Rain
87 °F
68 °F
100%
55%
Tuesday
May 28

Clear
88 °F
63 °F
0%
34%
Wednesday
May 29

Clear
84 °F
59 °F
0%
30%
Thursday
May 30

Rain
77 °F
60 °F
20%
43%
Friday
May 31

Rain
81 °F
57 °F
100%
40%
Saturday
Jun 1

Clouds
77 °F
55 °F
58%
30%
Sunday
Jun 2

Clouds
79 °F
56 °F
0%
33%
Monday
Jun 3

Clouds
84 °F
57 °F
0%
35%
Tuesday
Jun 4

Clear
85 °F
62 °F
0%
36%
Wednesday
Jun 5

Clouds
87 °F
63 °F
0%
34%
Thursday
Jun 6

Rain
86 °F
64 °F
21%
38%
Friday
Jun 7

Clouds
90 °F
62 °F
0%
29%
Saturday
Jun 8

Rain
87 °F
67 °F
96%
46%
Sunday
Jun 9

Clouds
78 °F
63 °F
65%
45%

Temperature 8-14 Day Outlook



Precipitation 8-14 Day Outlook






About Us
Contact Us
Site Map
Search Site
Advertise With Us
   
Wylie.USLakes.info
THE LAKE WYLIE WEBSITE

Copyright 2024, Lakes Online
Privacy    |    Legal